Location: *
(49.5667°N, 1.3667°W)
Time: 17:14:44
(UTC+00:00)

ERS-1 Rocket - Pass Details

Date: 20 September 2019
Orbit: 754 x 757 km, 98.5° (Epoch: 14 October)

Event Time Altitude Azimuth Distance (km) Brightness Sun altitude
Exits shadow 20:40:43 36° 53° (NE) 1,182 3.8 -24.1°
Drops below altitude 10° 20:44:53 10° 359° (N) 2,294 5.9 -24.6°
Sets 20:47:19 0° 352° (N) 3,224 6.8 -25.0°
